Voltar ao catálogo

KANOPUS-V 6

AtivoCiênciaSSO
NORAD 43877·PAYLOAD·🇷🇺 Russia

Lançado Dec 27, 2018 de Vostochny Cosmodrome

Loading…

Próximas Passagens (próximas 24 horas)

TLE

AtualizadoSource: Space-Track

Época: Sep 14, 2026, 14:51 UTC

1 43877U 18111B   26257.61940419  .00000028  00000-0  27482-5 0  9995
2 43877  97.3651 175.4214 0001867  90.0591 270.0869 15.40301404429292

Acompanhe KANOPUS-V 6 em tempo real com AllMySat

Download on the App Store